Home   Weather   Cape Town   Past weeks

Flag for South Africa Past Weather in Cape Town, South Africa — Yesterday and Last 2 Weeks

Now
66 °F

Clear.


Feels Like: 66 °F
Forecast: 57 / 65 °F
Wind: 3 mph from Southeast

Location: Cape Town International Airport

Current Time: Aug 30, 2016 at 7:16:01 PM

Latest Report: Aug 30, 2016 at 6:00 PM


Visibility: 10 mi

Pressure: 29.86 "Hg

Humidity: 73%

Dew Point: 57 °F

Location of Cape TownLocation

Past Weather in Cape Town — Graph

°F

Cape Town Temperature Yesterday

Maximum temperature yesterday: 70 °F (at 3:00 PM)
Minimum temperature yesterday: 48 °F (at 7:00 AM)
Average temperature yesterday: 58 °F

High & Low Weather Summary for the Past Weeks

 TemperatureHumidityPressure
High82 °F (Aug 26, 2:00 PM)100% (Aug 17, 3:00 AM)30.42 "Hg (Aug 17, 3:00 AM)
Low41 °F (Aug 16, 6:00 AM)30% (Aug 27, 2:00 PM)29.86 "Hg (Aug 30, 5:00 PM)
Average59 °F76%30.13 "Hg
* Reported Aug 15 6:00 PM — Aug 30 6:00 PM, Cape Town, Weather by CustomWeather, © 2016

Note: Actual official high and low records may vary slightly from our data, if they occured in-between our weather recording intervals... More about our weather records

Advertising

Cape Town Weather History for the Previous 24 Hours

Scroll right to see more
 ConditionsComfort  
Time TempWeatherWind HumidityBarometerVisibility
6:00 PM
Tue, Aug 30
66 °FClear.3 mph73%29.86 "Hg10 mi
5:00 PM70 °FPassing clouds.6 mph64%29.86 "HgN/A
4:00 PM70 °FPassing clouds.3 mph64%29.89 "HgN/A
3:00 PM70 °FPassing clouds.7 mph60%29.89 "HgN/A
2:00 PM72 °FPassing clouds.6 mph61%29.92 "HgN/A
1:00 PM72 °FPassing clouds.5 mph53%29.95 "HgN/A
12:00 PM70 °FPassing clouds.5 mph60%29.98 "HgN/A
11:00 AM66 °FPassing clouds.5 mph64%29.98 "HgN/A
10:00 AM63 °FSunny.1 mph77%30.01 "Hg10 mi
9:00 AM57 °FClear.3 mph88%30.01 "Hg6 mi
8:00 AM48 °FFog.2 mph94%30.04 "Hg5 mi
7:00 AM48 °FPassing clouds.3 mph94%30.04 "HgN/A
6:00 AM48 °FClear.No wind94%30.01 "Hg10 mi
5:00 AM50 °FClear.1 mph94%30.01 "Hg10 mi
4:00 AM50 °FClear.6 mph94%30.04 "Hg10 mi
3:00 AM50 °FClear.5 mph94%30.04 "Hg10 mi
2:00 AM52 °FClear.2 mph94%30.04 "Hg10 mi
1:00 AM52 °FClear.3 mph94%30.07 "Hg10 mi
12:00 AM54 °FClear.No wind88%30.07 "Hg10 mi
11:00 PM
Mon, Aug 29
57 °FClear.6 mph82%30.07 "Hg10 mi
10:00 PM57 °FClear.2 mph88%30.07 "Hg10 mi
9:00 PM59 °FClear.7 mph82%30.07 "Hg10 mi
8:00 PM55 °FClear.3 mph88%30.07 "Hg10 mi
7:00 PM57 °FClear.5 mph82%30.07 "Hg10 mi
Weather by CustomWeather, © 2016

See weather overviewHow to use our weather pages